Regional Weather Roundup
Issued by NWS

Home | Current Version | Previous Version | Graphics & Text | Print | Product List | Glossary On
Versions: 1 2 3 4 5 6 7 8 9 10 11 12 13 14 15 16 17 18 19 20 21 22 23 24 25 26 27 28 29 30 31 32 33 34 35 36 37 38 39 40 41 42 43 44 45 46 47 48 49 50
000
ASUS43 KMPX 251510
RWRMN
WEATHER ROUNDUP FOR MINNESOTA
NATIONAL WEATHER SERVICE TWIN CITIES/CHANHASSEN MN
1000 AM CDT FRI JUL 25 2014


NOTE: "FAIR" INDICATES FEW OR NO CLOUDS BELOW 12,000 FEET WITH NO
SIGNIFICANT WEATHER AND/OR OBSTRUCTIONS TO VISIBILITY. N/A MEANS
CURRENT SKY AND/OR WEATHER CONDITIONS ARE NOT AVAILABLE.

MNZ060>063-068>070-251600-
   Twin Cities Metro

CITY           SKY/WX    TMP DP  RH WIND       PRES   REMARKS
TWIN CITIES    CLOUDY    68  63  84 S13G18    29.84F
ST PAUL        CLOUDY    68  64  87 S8        29.84F
CRYSTAL        CLOUDY    70  63  78 S9        29.81F
BLAINE         CLOUDY    72  66  83 MISG      29.82F
LAKEVILLE      CLOUDY    66  63  88 S9        29.84F
EDEN PRAIRIE   CLOUDY    69  64  84 S8        29.83F
SOUTH ST PAUL  CLOUDY    70  64  81 S12       29.84F
LAKE ELMO      PTSUNNY   70  64  83 S10       29.84F
$$
MNZ001>005-007-008-013>017-022>024-027-028-251600-
   Northwest Minnesota

CITY           SKY/WX    TMP DP  RH WIND       PRES   REMARKS
BEMIDJI        MOSUNNY   70  62  74 SW12G17   29.78S
HALLOCK        SUNNY     72  64  78 W5        29.74S
ROSEAU         MOSUNNY   70  63  78 S3        29.77F
WARROAD        CLOUDY    68  64  88 S3        29.78S
THIEF RVR FALL CLOUDY    68  63  83 SW7       29.79R
CROOKSTON      CLOUDY    70  64  83 SW6       29.78F
FOSSTON        PTSUNNY   66  63  88 S8        29.80R
DETROIT LAKES  PTSUNNY   70  63  78 S15       29.77R
MOORHEAD       SUNNY     72  68  88 S8G17     29.75R
PARK RAPIDS    MOSUNNY   71  63  75 S17G24    29.77F
$$
MNZ006-009>011-018-025>026-251600-
   North Central Minnesota

CITY           SKY/WX    TMP DP  RH WIND       PRES   REMARKS
BAUDETTE       CLOUDY    69  63  81 VRB5      29.79R
FLAG ISLAND    MOSUNNY   70  63  78 S7        29.76S
INTL FALLS     CLOUDY    67  62  84 S3        29.79S
WASKISH        CLOUDY    70  64  83 CALM      29.78R
BIG FORK       PTSUNNY   70  63  78 S7        29.79F
LONGVILLE      CLOUDY    68  63  83 S8G18     29.75F
GRAND RAPIDS   CLOUDY    64  61  88 SE8       29.78F
CRANE LAKE     PTSUNNY   66  63  88 CALM      29.80F
ORR            PTSUNNY   66  59  77 SE5       29.76F
COOK           PTSUNNY   66  61  82 SE6       29.79F
$$
MNZ012-019>021-037-251600-
   Northeast Minnesota

CITY           SKY/WX    TMP DP  RH WIND       PRES   REMARKS
DULUTH         CLOUDY    67  60  78 S9        29.81F
ELY            PTSUNNY   70  61  73 S7        29.82R
HIBBING        PTSUNNY   68  60  75 SE5       29.80S
EVELETH        PTSUNNY   64  59  82 SW6       29.82S
DULUTH HARBOR  CLOUDY    59  55  88 CALM      29.82F
TWO HARBORS    PTSUNNY   66  59  77 S7        29.79F
SILVER BAY     PTSUNNY   66  64  94 S5        29.80F
GRAND MARAIS     N/A     59  52  77 E6        29.82F
G MARAIS ARPRT PTSUNNY   66  57  72 S5        29.86S
$$
MNZ029>031-032-039>041-046>048-054>057-064-251600-
   West Central Minnesota

CITY           SKY/WX    TMP DP  RH WIND       PRES   REMARKS
FERGUS FALLS   SUNNY     72  63  73 S14       29.76F
MORRIS         SUNNY     72  66  83 SE12      29.77S
ALEXANDRIA     CLOUDY    69  64  84 SE10      29.81F
ELBOW LAKE     FAIR      71  65  82 SE13      29.77S
WADENA         CLOUDY    66  63  88 S14       29.78F
GLENWOOD       MOSUNNY   72  64  78 SE12      29.81F
APPLETON       SUNNY     75  64  69 S7        29.77S
BENSON         CLOUDY    72  66  83 S7        29.79S
ORTONVILLE     MOSUNNY   73  64  73 SE6       29.77R
MADISON        SUNNY     75  66  73 S10       29.77S
WILLMAR        FAIR      72  66  83 SE8       29.82F
$$
MNZ033>034-036-042>043-049>051-058-059-251600-
   Central Minnesota

CITY           SKY/WX    TMP DP  RH WIND       PRES   REMARKS
ST CLOUD       CLOUDY    72  64  78 S13       29.81F
SAUK CENTRE    CLOUDY    68  64  89 SE8       29.82F
PAYNESVILLE    CLOUDY    66  64  91 E8        29.82F
AITKIN         CLOUDY    68  63  83 SW7       29.78S
PINE RIVER     PTSUNNY   70  63  78 S12       29.81F
BRAINERD       CLOUDY    67  63  87 SW18G24   29.79F
STAPLES        CLOUDY    66  63  88 S15       29.80F
LONG PRAIRIE   CLOUDY    64  63  94 SE8       29.82F
LITTLE FALLS   CLOUDY    64  61  88 S10       29.82S
LITCHFIELD     CLOUDY    70  68  94 SE6       29.82F
BUFFALO        CLOUDY    68  63  83 S6        29.84F
MAPLE LAKE     CLOUDY    69  66  91 S3        29.84F
$$
MNZ037-044-045-052-053-251600-
   East Central Minnesota

CITY           SKY/WX    TMP DP  RH WIND       PRES   REMARKS
PRINCETON      PTSUNNY   72  66  83 S13G22    29.80F
MORA           CLOUDY    68  63  83 SW15      29.81S
CAMBRIDGE      PTSUNNY   72  61  68 S13G20    29.78F
RUSH CITY      PTSUNNY   69  65  86 S9G16     29.81R
MOOSE LAKE     CLOUDY    66  61  82 S6        29.79F
HINCKLEY       CLOUDY    66  64  94 SW8       29.81S
CLOQUET        CLOUDY    64  61  88 S3        29.82S
MCGREGOR       CLOUDY    66  64  94 S7        29.79F
$$
MNZ071>073-080-081-089-090-097-098-251600-
   Southwest Minnesota

CITY           SKY/WX    TMP DP  RH WIND       PRES   REMARKS
MONTEVIDEO     MOSUNNY   73  66  78 SW8       29.78F
GRANITE FALLS  CLOUDY    72  64  77 SE10      29.81R
CANBY          MOSUNNY   74  65  73 SE10      29.78S
MARSHALL       SUNNY     73  63  68 S15G21    29.77S
REDWOOD FALLS  CLOUDY    72  63  73 S16       29.80R
OLIVIA         PTSUNNY   73  64  73 S13       29.80S
PIPESTONE      SUNNY     70  63  78 S17G26    29.79R
WINDOM         MOSUNNY   72  61  68 S17G23    29.80R
WORTHINGTON    MOSUNNY   70  61  73 S15G26    29.80R
JACKSON        MOSUNNY   68  59  73 S18       29.81R
TRACY          MOSUNNY   73  64  71 S13G18    29.80R
SLAYTON        MOSUNNY   71  62  73 S17G24    29.80S
$$
MNZ065>067-074>077-082>085-091>093-251600-
   South Central Minnesota

CITY           SKY/WX    TMP DP  RH WIND       PRES   REMARKS
MANKATO        CLOUDY    70  63  78 S5        29.84R
NEW ULM        PTSUNNY   72  66  83 S12       29.81S
ST JAMES       PTSUNNY   73  63  68 S7        29.81R
FAIRMONT       PTSUNNY   72  59  64 S17       29.80F
GLENCOE        CLOUDY    71  64  78 S6        29.83F
FARIBAULT      CLOUDY    72  63  73 SE7       29.86R
OWATONNA       PTSUNNY   70  64  83 SE10G17   29.85S
WASECA         MOSUNNY   72  63  73 SE8       29.86R
ALBERT LEA     PTSUNNY   70  66  88 S14G21    29.83S
$$
MNZ078>079-086>088-094>096-251600-
   Southeast Minnesota

CITY           SKY/WX    TMP DP  RH WIND       PRES   REMARKS
ROCHESTER      CLOUDY    66  62  87 S14       29.90R
RED WING       CLOUDY    70  64  83 S7        29.86F
STANTON        PTSUNNY   70  63  78 S14       29.84F
DODGE CENTER   CLOUDY    66  64  94 S15       29.87F
WINONA         CLOUDY    66  61  82 SW5       29.89F
AUSTIN         CLOUDY    66  64  94 S7        29.85S
PRESTON        CLOUDY    62  62 100 S8        29.91R
$$
ABBREVIATIONS USED IN REMARKS
   TC - TEMPERATURES IN CELSIUS
  WCI - WIND CHILL INDEX
   HX - HEAT INDEX
  VSB - VISIBILITY
$$



USA.gov is the U.S. government's official web portal to all federal, state and local government web resources and services.